EHI
37 36 37 34 29 25 24 24 20 15 14 14 10 7 7 8 11 15 23 33 39 39 38 37 34 28 19 12 9 8 6 5 6 6 4 2 1 0 0 0 0 0 0
31 29 26 23 21 20 21 20 16 12 11 12 11 9 8 8 11 15 22 29 35 36 35 33 33 28 21 15 11 11 12 10 10 10 8 4 2 1 0 0 0 0 0
21 18 16 15 14 14 15 15 12 9 8 8 9 9 8 9 12 14 18 23 27 27 26 28 28 26 22 18 16 17 20 19 17 15 10 5 3 2 1 0 0 0 0
12 12 12 12 11 11 10 9 9 8 7 7 7 7 8 11 12 11 11 14 15 15 16 20 22 20 17 15 16 22 27 28 26 20 12 5 1 1 1 0 0 0 0
6 7 9 9 8 8 8 6 6 7 6 7 7 5 6 10 12 10 9 8 7 7 8 12 16 14 9 7 13 25 34 36 33 26 16 7 2 1 0 0 0 0 0
2 3 5 6 5 5 6 5 4 4 5 5 5 4 4 6 9 12 12 10 7 5 6 12 17 16 9 4 9 23 36 42 38 31 22 13 5 1 0 0 0 0 0
2 2 3 4 2 2 3 2 2 2 3 3 3 3 3 4 6 9 12 12 8 5 6 13 22 24 17 9 7 16 29 38 41 36 30 20 11 4 1 0 0 0 0
4 3 3 3 2 1 1 1 1 1 1 1 2 2 2 3 3 4 7 8 7 5 5 11 20 25 22 15 9 9 17 28 36 40 37 29 17 8 3 1 0 0 0
5 4 4 3 3 2 1 0 0 0 0 0 1 1 1 1 2 2 3 5 5 4 3 5 10 15 17 15 11 8 9 16 24 32 37 35 23 10 4 2 1 1 0
4 4 3 3 3 3 1 0 0 0 0 0 0 0 0 0 1 1 2 3 4 3 3 3 4 6 8 10 10 8 6 7 11 18 27 32 25 13 6 3 2 1 0
4 3 3 3 3 2 1 0 0 0 0 0 0 0 0 0 0 0 1 1 1 1 1 2 2 2 3 4 5 4 3 3 4 6 13 21 23 15 8 4 3 1 0
4 3 2 4 4 2 0 0 0 0 0 0 0 0 0 0 0 0 0 0 0 0 0 1 1 1 0 1 2 1 1 1 1 1 3 8 13 13 8 5 3 1 1
2 2 2 3 3 2 0 0 0 0 0 0 0 0 0 0 0 0 0 0 0 0 0 0 0 0 0 0 1 0 0 0 0 0 0 1 4 7 7 6 3 1 1
0 0 1 1 1 1 0 0 0 0 0 0 0 0 0 0 0 0 0 0 0 0 0 0 0 0 0 0 0 0 0 0 0 0 0 0 0 2 5 4 2 0 1
0 0 0 0 0 0 0 0 0 0 0 0 0 0 0 0 0 0 0 0 0 0 0 0 0 0 0 0 0 0 0 0 0 0 0 0 0 0 2 2 1 0 0
0 0 0 0 0 0 0 0 0 0 0 0 0 0 0 0 0 0 0 0 0 0 0 0 0 0 0 0 0 0 0 0 0 0 0 0 0 0 0 0 0 0 0
0 0 0 0 0 0 0 0 0 0 0 0 0 0 0 0 0 0 0 0 0 0 0 0 0 0 0 0 0 0 0 0 0 0 0 0 0 0 0 0 0 0 0
0 0 0 0 0 0 0 0 0 0 0 0 0 0 0 0 0 0 0 0 0 0 0 0 0 0 0 0 0 0 0 0 0 0 0 0 0 0 0 0 0 0 0
0 0 0 0 0 0 0 0 0 0 0 0 0 0 0 0 0 0 0 0 0 0 0 0 0 0 0 0 0 0 0 0 0 0 0 0 0 0 0 0 0 0 0
0 0 0 0 0 0 0 0 0 0 0 0 0 0 0 0 0 0 0 0 0 0 0 0 0 0 0 0 0 0 0 0 0 0 0 0 0 0 0 0 0 0 0
0 0 0 0 0 0 0 0 0 0 0 0 0 0 0 0 0 0 0 0 0 0 0 0 0 0 0 0 0 0 0 0 0 0 0 0 0 0 0 0 0 0 0
0 0 0 0 0 0 0 0 0 0 0 0 0 0 0 0 0 0 0 0 0 0 0 0 0 0 0 0 0 0 0 0 0 0 0 0 0 0 0 0 0 0 0
0 0 0 0 0 0 0 0 0 0 0 0 0 0 0 0 0 0 0 0 0 0 0 0 0 0 0 0 0 0 0 0 0 0 0 0 0 0 0 0 0 0 0
0 0 0 0 0 0 0 0 0 0 0 0 0 0 0 0 0 0 0 0 0 0 0 0 0 0 0 0 0 0 0 0 0 0 0 0 0 0 0 0 0 0 0
0 0 0 0 0 0 0 0 0 0 0 0 0 0 0 0 0 0 0 0 0 0 0 0 0 0 0 0 0 0 0 0 0 0 0 0 0 0 0 0 0 0 0
0 0 0 0 0 0 0 0 0 0 0 0 0 0 0 0 0 0 0 0 0 0 0 0 0 0 0 0 0 0 0 0 0 0 0 0 0 0 0 0 0 0 0
Wind_Speed
1 1 1 0 1 1 1 1 2 2 3 4 4 5 5 5 4 2 3 10 13 14 15 15 15 15 16 16 16 16 16 16 14 14 13 13 13 13 13 12 11 10 10
1 1 1 1 2 1 1 2 3 3 3 4 5 5 5 5 4 4 3 6 12 14 14 15 15 16 16 17 17 17 17 17 16 15 15 14 14 14 14 13 12 11 11
2 2 2 1 1 1 2 2 3 3 4 4 5 6 5 6 5 5 5 4 6 13 16 16 16 16 17 18 19 19 18 18 17 17 16 16 15 15 14 14 13 13 12
2 2 2 1 1 2 2 2 2 2 2 2 3 4 4 4 6 7 6 6 5 7 12 18 17 17 19 20 20 20 20 19 19 19 18 18 17 16 16 15 14 14 13
2 2 2 2 2 2 2 3 1 2 3 3 4 4 4 4 5 7 7 8 7 7 6 12 19 19 21 22 21 21 20 20 20 20 20 20 19 18 17 17 16 15 15
3 3 2 2 3 2 2 2 3 2 2 3 6 5 4 5 5 6 7 6 6 8 9 9 10 14 21 21 20 20 21 21 21 22 22 21 21 20 19 18 17 17 16
3 3 3 3 3 2 3 4 3 4 4 3 3 4 5 6 6 5 5 4 5 5 5 6 6 6 9 19 20 20 21 22 22 23 22 22 21 21 20 20 19 18 18
1 3 3 3 3 3 3 3 2 2 4 4 3 4 4 5 4 4 3 4 4 3 3 4 4 5 5 6 11 20 20 21 22 23 23 23 22 21 22 22 21 20 19
1 2 3 3 3 4 3 3 2 3 3 4 4 3 3 3 4 3 3 2 2 2 2 3 3 5 6 5 6 15 21 21 22 23 23 23 22 22 22 22 22 21 21
2 2 2 2 3 3 5 5 3 4 4 4 4 3 3 4 3 4 4 4 3 3 3 4 4 3 4 4 6 9 16 20 22 23 23 23 23 23 23 23 23 23 22
3 3 2 1 2 3 4 4 4 4 4 4 4 4 4 4 4 4 5 4 4 3 3 3 3 3 4 4 4 8 11 15 19 21 22 22 23 24 24 25 25 24 24
2 2 1 1 1 3 4 4 4 5 4 5 4 4 4 4 4 3 4 4 4 4 3 2 3 3 4 4 6 7 9 11 15 18 20 20 21 23 24 25 26 25 25
2 3 3 2 2 3 4 4 4 5 5 5 4 4 4 5 4 4 4 5 5 4 4 3 4 4 4 2 3 5 8 11 12 14 17 18 20 21 22 24 24 25 24
3 3 2 3 3 4 5 4 4 5 5 4 6 6 4 5 5 4 4 4 5 5 5 5 2 2 2 2 2 4 4 9 11 13 14 16 18 19 20 21 22 22 22
4 4 4 4 4 4 5 5 4 5 5 5 5 6 5 4 4 5 4 4 4 6 6 5 3 2 2 3 4 4 4 7 10 12 13 15 16 17 18 19 20 21 20
4 4 5 5 5 5 5 5 5 5 6 5 5 6 5 4 5 4 4 4 4 5 6 5 4 4 3 3 4 4 4 6 9 11 13 14 15 16 17 18 19 20 20
4 4 5 5 5 6 6 5 6 6 7 6 6 7 6 6 5 5 4 4 4 4 6 6 5 4 3 3 2 3 4 4 5 10 12 14 15 15 16 17 18 19 19
4 5 5 5 6 7 6 6 6 7 6 6 7 7 7 7 6 5 5 6 5 5 6 7 6 5 6 5 4 4 4 5 4 8 11 13 14 15 16 16 17 18 19
4 5 5 6 6 6 6 6 6 6 6 6 6 7 7 7 7 6 6 6 5 7 5 5 6 5 5 4 4 5 5 4 4 5 8 11 13 14 15 16 16 17 18
5 5 6 6 6 6 7 6 6 6 6 6 6 7 7 7 7 7 6 6 6 6 6 5 5 5 5 5 4 4 4 4 4 4 4 5 9 12 13 14 15 16 17
6 5 5 6 6 7 6 4 4 7 6 6 7 7 8 9 10 8 8 6 5 4 5 5 5 5 5 4 3 3 4 3 4 4 3 3 4 5 7 10 13 15 15
5 5 5 6 7 8 3 2 3 6 7 7 8 8 9 10 12 13 14 13 10 8 7 6 6 6 6 5 4 4 3 3 3 2 2 3 3 4 4 5 9 13 15
5 5 6 6 6 6 6 6 7 5 7 8 9 8 10 11 9 6 8 12 13 16 14 9 9 9 8 6 5 5 5 4 4 2 1 2 2 2 1 2 9 12 13
5 5 6 7 6 7 6 8 8 7 8 9 10 10 9 9 10 8 7 7 7 8 10 11 10 11 10 8 7 6 6 5 4 3 3 2 1 1 1 1 4 9 11
5 6 7 7 7 6 7 8 9 6 7 9 10 10 9 8 9 9 7 8 8 8 11 14 14 14 15 13 8 4 4 4 4 3 3 3 2 1 1 1 2 5 9
6 7 7 6 7 7 7 9 10 6 7 8 7 8 10 9 8 7 7 7 8 8 8 9 8 9 10 12 13 9 7 6 4 4 4 4 3 3 2 1 1 2 4
Wind_Direction
358 329 338 342 278 269 227 223 235 250 253 253 255 256 263 266 274 270 173 187 191 192 194 198 200 203 202 202 201 200 200 199 194 191 189 188 185 183 182 181 178 173 171
14 339 293 259 262 254 229 233 239 236 241 241 243 251 256 263 269 263 233 204 203 200 202 205 207 209 209 208 206 204 203 202 199 195 194 193 191 188 188 187 185 182 179
23 336 295 280 284 266 238 227 242 237 238 236 237 240 241 239 245 246 245 229 214 212 210 211 212 212 214 213 211 209 206 205 202 198 197 196 194 192 191 190 189 187 185
22 331 320 14 345 295 267 249 242 258 273 278 266 257 249 235 235 233 233 230 224 226 217 217 217 217 218 217 216 213 209 207 205 202 200 199 197 195 194 193 193 191 189
25 354 349 18 322 309 307 312 20 349 318 313 290 260 251 244 235 237 229 227 220 220 223 216 216 219 222 222 220 216 212 209 208 206 204 203 200 198 197 196 196 194 193
37 4 323 28 346 322 326 348 338 312 289 276 282 291 277 259 243 239 237 232 222 220 221 222 211 219 222 224 222 219 216 213 210 209 209 207 204 201 199 199 198 197 197
27 331 335 350 315 322 353 336 332 317 297 274 278 285 274 261 246 230 224 228 234 237 228 215 205 207 214 221 223 221 220 218 214 211 210 209 207 204 202 201 200 200 199
353 320 19 331 342 343 306 285 294 298 300 306 297 296 296 289 283 254 223 218 225 236 258 246 215 212 216 203 214 220 224 223 219 214 211 209 208 206 204 203 202 202 201
320 343 333 324 335 312 317 343 309 297 299 306 295 286 294 302 327 315 319 277 211 207 244 255 240 226 225 218 208 215 221 223 223 220 215 210 208 207 207 205 204 204 204
277 273 284 304 326 322 319 311 1 342 315 302 299 289 278 295 299 309 313 305 273 236 230 247 249 226 229 227 226 222 220 220 222 223 219 213 209 207 208 208 207 206 206
258 240 227 246 313 300 310 327 324 315 309 302 307 311 310 301 269 263 285 296 295 269 242 227 227 231 227 222 226 233 229 220 221 223 223 219 213 210 210 210 211 210 209
279 273 237 110 295 299 316 315 307 295 286 294 300 298 297 293 287 277 277 284 283 278 265 248 230 226 230 220 232 241 235 226 221 222 223 221 216 213 212 212 214 214 213
323 36 28 10 316 306 295 285 285 282 283 283 282 277 281 290 292 287 286 289 294 291 277 252 230 212 226 212 218 237 238 231 225 222 222 221 219 215 212 213 215 215 215
331 358 332 301 289 288 289 295 293 282 275 272 272 271 274 278 283 285 279 284 291 293 286 276 250 209 197 195 189 220 238 231 228 224 224 222 220 217 214 212 214 214 214
319 340 338 316 298 286 281 282 276 280 283 277 274 274 264 266 270 271 273 269 270 279 282 288 286 248 201 195 189 215 228 227 229 228 225 224 221 217 213 211 212 212 211
296 300 295 296 295 288 280 274 273 272 274 271 262 261 265 264 272 277 272 269 264 267 275 284 286 272 266 251 201 219 235 238 231 230 226 222 220 217 213 211 211 209 207
291 289 285 286 287 285 279 273 271 271 272 273 275 272 267 262 262 272 278 275 268 268 275 280 284 285 271 269 243 234 238 235 234 229 225 222 218 216 214 212 211 209 207
278 281 283 287 287 287 287 282 281 283 279 278 275 275 275 273 265 257 260 268 270 267 262 268 275 277 264 252 239 236 251 254 239 229 223 222 218 216 214 213 213 212 209
279 282 284 285 286 287 286 282 278 278 278 278 278 276 274 272 271 264 259 261 266 272 268 266 272 274 271 259 251 241 239 250 254 239 221 218 216 215 214 213 212 212 210
276 274 275 278 282 283 281 279 279 279 278 278 278 276 274 268 266 267 265 257 259 263 270 270 268 268 266 257 244 239 241 229 237 242 231 215 212 213 214 212 210 209 207
277 281 287 287 284 280 280 292 290 290 296 296 290 282 276 275 269 261 264 262 270 272 273 273 271 272 269 269 261 250 248 237 231 222 219 212 201 206 209 212 210 206 203
271 277 280 284 284 288 304 290 282 297 294 289 287 283 282 274 264 249 246 248 249 254 260 266 271 269 272 281 286 281 272 255 251 224 217 227 199 203 202 199 199 196 195
281 280 279 279 279 281 266 246 242 267 280 279 279 278 281 281 293 282 260 250 248 247 242 247 260 266 273 277 285 285 280 269 258 239 220 243 210 208 217 200 185 185 187
276 277 277 278 277 278 263 243 237 251 269 270 268 267 267 271 277 280 283 276 264 255 242 236 240 248 255 260 264 264 268 271 261 241 213 231 202 178 121 84 163 174 179
272 273 275 272 271 271 253 237 227 259 267 271 269 269 267 266 263 257 259 267 270 269 266 255 239 238 240 244 244 255 259 253 253 237 211 201 183 152 112 92 112 151 163
269 273 274 273 274 274 257 232 217 250 269 276 278 272 267 264 261 246 250 261 267 270 277 285 272 256 247 241 232 229 238 241 244 236 202 185 173 155 149 120 132 140 136